TimeMST,TemperatureF,Dew PointF,Humidity,Sea Level PressureIn,VisibilityMPH,Wind Direction,Wind SpeedMPH,Gust SpeedMPH,PrecipitationIn,Events,Conditions,WindDirDegrees,DateUTC
12:46 AM,1.4,-4.0,78,30.35,2.5,Calm,Calm,-,N/A,,Haze,0,2013-01-24 07:46:00
12:53 AM,1.0,-2.9,83,30.65,2.5,Calm,Calm,-,N/A,,Clear,0,2013-01-24 07:53:00
1:03 AM,1.4,-2.2,85,30.36,3.0,Calm,Calm,-,N/A,,Clear,0,2013-01-24 08:03:00
1:16 AM,1.4,-2.2,85,30.36,2.5,Calm,Calm,-,N/A,,Haze,0,2013-01-24 08:16:00
1:38 AM,-0.4,-2.2,92,30.35,3.0,Calm,Calm,-,N/A,,Clear,0,2013-01-24 08:38:00
1:46 AM,1.4,-2.2,85,30.34,2.5,Calm,Calm,-,N/A,,Clear,0,2013-01-24 08:46:00
1:53 AM,1.0,-2.9,83,30.62,3.0,Calm,Calm,-,N/A,,Clear,0,2013-01-24 08:53:00
2:53 AM,1.9,-2.0,83,30.61,3.0,North,5.8,-,N/A,,Clear,360,2013-01-24 09:53:00
3:15 AM,3.2,-0.4,85,30.34,2.5,Calm,Calm,-,N/A,,Clear,0,2013-01-24 10:15:00
3:34 AM,1.4,-2.2,85,30.35,3.0,Calm,Calm,-,N/A,,Clear,0,2013-01-24 10:34:00
3:53 AM,3.9,-0.9,80,30.60,3.0,NNE,5.8,-,N/A,,Haze,20,2013-01-24 10:53:00
4:53 AM,6.1,1.9,83,30.58,3.0,SSW,4.6,-,N/A,,Overcast,200,2013-01-24 11:53:00
5:53 AM,6.1,1.9,83,30.59,4.0,Calm,Calm,-,N/A,,Clear,0,2013-01-24 12:53:00
6:53 AM,6.1,1.9,83,30.61,3.0,Calm,Calm,-,N/A,,Mostly Cloudy,0,2013-01-24 13:53:00
7:50 AM,8.6,3.2,79,30.34,2.5,Calm,Calm,-,N/A,,Haze,0,2013-01-24 14:50:00
7:53 AM,9.0,3.9,80,30.59,2.5,Calm,Calm,-,N/A,,Haze,0,2013-01-24 14:53:00
8:53 AM,10.0,5.0,80,30.59,2.0,Calm,Calm,-,N/A,,Haze,0,2013-01-24 15:53:00
9:41 AM,10.4,5.0,79,30.35,3.0,ESE,3.5,-,N/A,,Haze,120,2013-01-24 16:41:00
9:53 AM,10.9,5.0,77,30.60,3.0,SE,3.5,-,N/A,,Haze,130,2013-01-24 16:53:00
10:53 AM,12.9,6.1,74,30.61,4.0,Calm,Calm,-,N/A,,Haze,0,2013-01-24 17:53:00
11:53 AM,17.1,7.0,65,30.57,5.0,East,3.5,-,N/A,,Haze,80,2013-01-24 18:53:00
12:53 PM,18.0,8.1,65,30.54,6.0,Calm,Calm,-,N/A,,Haze,0,2013-01-24 19:53:00
1:53 PM,18.0,9.0,68,30.52,6.0,East,4.6,-,N/A,,Haze,80,2013-01-24 20:53:00
2:53 PM,21.0,10.0,63,30.49,6.0,Calm,Calm,-,N/A,,Haze,0,2013-01-24 21:53:00
3:53 PM,19.9,10.9,68,30.49,5.0,East,3.5,-,N/A,,Haze,80,2013-01-24 22:53:00
4:53 PM,19.9,10.9,68,30.49,5.0,Calm,Calm,-,N/A,,Haze,0,2013-01-24 23:53:00
5:53 PM,19.0,10.9,71,30.50,6.0,Calm,Calm,-,N/A,,Haze,0,2013-01-25 00:53:00
6:53 PM,17.1,10.9,77,30.53,5.0,Calm,Calm,-,N/A,,Haze,0,2013-01-25 01:53:00
7:53 PM,16.0,10.0,77,30.53,5.0,NE,3.5,-,N/A,,Haze,40,2013-01-25 02:53:00
8:53 PM,15.1,10.0,80,30.54,5.0,NNE,4.6,-,N/A,,Haze,20,2013-01-25 03:53:00
9:53 PM,12.9,8.1,81,30.55,4.0,West,4.6,-,N/A,,Haze,260,2013-01-25 04:53:00
10:53 PM,10.9,7.0,84,30.56,3.0,North,3.5,-,N/A,,Clear,360,2013-01-25 05:53:00
11:53 PM,12.0,8.1,84,30.53,4.0,Calm,Calm,-,N/A,,Scattered Clouds,0,2013-01-25 06:53:00